Location: Cargill Incorporated Elevator
(42.7294°N, 93.7333°W)
Time: 04:46:26
(UTC+00:00)

Lacrosse 5 rocket - Pass Details

Date: 19 January 2026
Orbit: 401 x 481 km, 57.0° (Epoch: 15 February)

Event Time Altitude Azimuth Distance (km) Brightness Sun altitude
Exits shadow 12:33:50 - 336° (NNW) 1,818 3.6 -12.2°
Reaches altitude 10° 12:34:20 10° 342° (NNW) 1,679 3.5 -12.1°
Maximum altitude 12:36:51 17° 24° (NNE) 1,314 3.3 -11.6°
Drops below altitude 10° 12:39:21 10° 65° (ENE) 1,674 4.5 -11.2°
Sets 12:42:07 0° 87° (E) 2,546 6.2 -10.7°
